#timestamp,LO_Frequency,Hit,StdDev 
1657846815.8,286047004.8,N
1657846835.7,286047005.5,N
1657846855.5,286047003.5,N
1657846875.3,286047004.7,N
1657846895.2,286047005.3,N
1657846915.9,286047005.0,N
1657846935.7,286047006.9,Y
1657846955.6,286047000.5,P
1657846975.4,286047002.0,N
1657846995.3,286047004.0,N
1657847015.1,286047002.2,N
1657847016.0,286047002.2,N
1657847035.8,286047002.0,N
1657847055.7,286047000.6,N
1657847075.5,286046996.9,N
1657847095.3,286046998.0,N
1657847115.2,286046995.7,N
1657847135.0,286046997.2,N
1657847135.9,286046997.2,N
1657847155.8,286046995.4,N
1657847175.6,286046997.9,N
1657847195.4,286046995.5,N
1657847215.3,286046998.7,N
1657847235.1,286046998.6,N
1657847255.8,286046997.1,N
1657847275.7,286046995.4,N
1657847295.5,286046995.2,N
1657847315.3,286046995.9,N
1657847335.2,286046997.0,N
1657847355.0,286046997.9,N
1657847355.9,286046997.9,N
1657847375.8,286046995.3,N
1657847395.6,286046995.9,N
1657847415.4,286046994.8,N
1657847435.3,286046992.1,N
1657847455.1,286046996.0,N
1657847475.8,286046996.4,N
1657847495.7,286046994.1,N
1657847515.5,286046994.6,N
1657847535.4,286046995.7,N
1657847555.2,286046996.4,N
1657847575.0,286046997.4,N
1657847575.9,286046997.4,N
1657847595.8,286046999.2,N
1657847615.6,286046999.2,N
1657847635.4,286046997.8,N
1657847655.3,286047001.2,N
1657847675.1,286046999.3,N
1657847695.9,286046996.8,N
1657847715.7,286046999.0,N
1657847735.5,286047001.2,N
1657847755.4,286046998.5,N
1657847775.2,286046995.0,N
1657847795.0,286046997.5,N
1657847795.9,286046997.5,N
1657847815.8,286046997.5,N
1657847835.6,286046997.3,N
1657847855.5,286046995.5,N
1657847875.3,286046993.5,Y
1657847895.1,286046996.7,P
1657847915.9,286046997.5,P
1657847935.7,286047001.2,P
1657847955.5,286046996.9,N
1657847975.4,286046998.7,N
1657847995.2,286046998.2,N
1657848015.1,286046996.6,N
1657848016.0,286046996.6,N
1657848035.8,286046995.2,Y
1657848055.6,286046999.6,P
1657848075.5,286046997.4,N
1657848095.3,286046999.6,N
1657848115.1,286046996.9,Y
1657848135.9,286046997.5,P
1657848155.7,286046995.6,P
1657848175.6,286046995.1,P
1657848195.4,286046995.8,Y
1657848215.2,286046997.1,P
1657848235.1,286046996.5,P
1657848236.0,286046996.5,P
1657848255.8,286046999.1,Y
1657848275.7,286047002.5,P
1657848295.5,286047003.6,N
1657848315.3,286047005.6,N
1657848335.2,286047005.5,N
1657848355.0,286047005.6,N
1657848355.9,286047005.6,N
1657848375.8,286047004.8,N
1657848395.6,286047004.9,N
1657848415.4,286047004.7,N
1657848435.3,286047005.1,N
1657848455.1,286047003.6,N
1657848475.8,286047005.8,N
1657848495.7,286047004.5,N
1657848515.5,286047007.3,Y
1657848535.4,286046999.9,P
1657848555.2,286046998.7,N
1657848575.0,286046999.6,N
1657848575.9,286046999.6,N
1657848595.8,286047000.2,N
1657848615.6,286047005.6,Y
1657848635.5,286047005.9,P
1657848655.3,286047003.1,N
1657848675.1,286047007.2,P
1657848695.9,286047008.1,Y
1657848715.7,286047003.5,P
1657848735.5,286047002.9,P
1657848755.4,286047004.4,P
1657848775.2,286047001.4,N
1657848795.1,286047001.7,N
1657848796.0,286047001.7,N
1657848815.8,286046999.9,N
1657848835.6,286046999.7,N
1657848855.5,286047000.3,N
1657848875.3,286047002.5,N
1657848895.1,286047004.1,N
1657848915.9,286047002.0,N
1657848935.7,286047002.1,N
1657848955.6,286047002.3,N
1657848975.4,286047000.9,N
1657848995.2,286047000.8,N
1657849015.1,286046999.4,N
1657849016.0,286046999.4,N
1657849035.8,286046999.6,N
1657849055.6,286046996.9,N
1657849075.5,286046999.6,N
1657849095.3,286046996.8,N
1657849115.1,286046997.1,N
1657849135.9,286046997.1,N
1657849155.7,286046996.6,N
1657849175.6,286046997.4,N
1657849195.4,286046996.9,N
1657849215.2,286046995.1,N
1657849235.1,286046998.0,N
1657849236.0,286046998.0,N
1657849255.8,286046994.9,N
1657849275.7,286046997.5,N
1657849295.5,286046997.3,N
1657849315.3,286046996.9,N
1657849335.2,286046998.1,N
1657849355.9,286046998.3,N
1657849375.7,286047002.3,N
1657849395.6,286047000.0,N
1657849415.4,286047002.8,N
1657849435.3,286047002.6,N
1657849455.1,286046999.7,N
1657849456.0,286046999.7,N
1657849475.8,286047002.6,N
1657849495.7,286047001.6,N
1657849515.5,286047004.1,N
1657849535.3,286047004.7,N
1657849555.2,286047004.5,N
1657849575.0,286047007.4,N
1657849575.9,286047007.4,N
1657849595.8,286047007.0,N
1657849615.6,286047004.7,N
1657849635.4,286047010.3,N
1657849655.3,286047007.9,N
1657849675.1,286047009.1,N
1657849695.8,286047010.4,N
1657849715.7,286047013.5,N
1657849735.5,286047011.7,N
1657849755.4,286047012.0,N
1657849775.2,286047011.0,N
1657849795.0,286047013.4,N
1657849795.9,286047013.4,N
1657849815.8,286047013.5,N
1657849835.6,286047012.2,N
1657849855.4,286047011.1,N
1657849875.3,286047012.1,N
1657849895.1,286047010.1,N
1657849915.9,286047012.4,N
1657849935.7,286047011.9,N
1657849955.5,286047009.4,N
1657849975.4,286047010.6,N
1657849995.2,286047008.0,N
1657850015.0,286047008.4,N
1657850015.9,286047008.4,N
1657850035.8,286047008.6,N
1657850055.6,286047012.4,Y
1657850075.5,286047001.9,P
1657850095.3,286047000.0,N
1657850115.1,286046998.2,N
1657850135.9,286046998.8,N
1657850155.7,286047000.9,N
1657850175.5,286047003.9,N
1657850195.4,286046999.7,N
1657850215.2,286047000.3,N
1657850235.1,286047002.6,N
1657850236.0,286047002.6,N
1657850255.8,286047005.9,N
1657850275.6,286047004.8,N
1657850295.5,286047004.7,N
1657850315.3,286047006.6,N
1657850335.1,286047008.3,N
1657850355.9,286047006.5,N
1657850375.7,286047005.0,N
1657850395.5,286047006.8,N
